Regional Weather Roundup
Issued by NWS Charleston, SC

Current Version | Previous Version | Graphics & Text | Print | Product List | Glossary On
Versions: 1 2 3 4 5 6 7 8 9 10 11 12 13 14 15 16 17 18 19 20 21 22 23 24 25 26 27 28 29 30 31 32 33 34 35 36 37 38 39 40 41 42 43 44 45 46 47 48 49 50
000
ASUS42 KCHS 310612
RWRCHS

REGIONAL WEATHER ROUNDUP
NATIONAL WEATHER SERVICE CHARLESTON SC
200 AM EDT MON AUG 31 2015

NOTE: "FAIR" INDICATES FEW OR NO CLOUDS BELOW 12,000 FEET WITH NO
SIGNIFICANT WEATHER AND/OR OBSTRUCTIONS TO VISIBILITY.

NOT ALL STATIONS ARE QUALITY CONTROLLED BY THE NATIONAL
WEATHER SERVICE. USE DATA WITH CAUTION...ESPECIALLY
DEWPOINT OBSERVATIONS.

SCZ027-030-031-034>040-042>050-310700-
...SOUTHEAST SOUTH CAROLINA...

CITY           SKY/WX    TMP DP  RH WIND       PRES   REMARKS
N CHARLESTON   MOCLDY    76  73  91 SE8       30.05F
6HR MIN TEMP:  75; 6HR MAX TEMP:  77; 6HR PCP:  0.02;

WATERFRONT PRK   N/A     80  76  87 SE9       30.03F
MOUNT PLEASANT LGT RAIN  77  75  94 SE6       30.06F
JOHNS ISLAND   MOCLDY    79  75  89 SE6       30.05F
PINOPOLIS        N/A     75  73  94 CALM      30.01S
MONCKS CORNER  FAIR      75  72  88 CALM      30.05F
SUMMERVILLE    MOCLDY    73  73 100 CALM      30.05F
BEAUFORT MCAS  RAIN      77  75  93 SE5       30.04F
6HR MIN TEMP:  76; 6HR MAX TEMP:  78; 6HR PCP:  0.15;

BEAUFORT ARPT  FAIR      77  73  88 CALM      30.04S
HILTON HEAD IS FAIR      79  75  89 SE3       30.05S
WALTERBORO     HVY RAIN  75  73  94 W13       30.05R
ALLENDALE      CLOUDY    73  73 100 CALM      30.05S

...SOUTHERN MIDLANDS AND PEE DEE...

CITY           SKY/WX    TMP DP  RH WIND       PRES   REMARKS
GEORGETOWN     NOT AVBL
KINGSTREE      NOT AVBL
ORANGEBURG     LGT RAIN  73  71  93 NE7       30.06F
6HR MIN TEMP:  73; 6HR MAX TEMP:  76; 6HR PCP:  0.36;

BARNWELL       CLOUDY    72  72 100 N6        30.07F
AIKEN          CLOUDY    64  63  94 N3        30.11F FOG
MANNING        CLOUDY    72  72 100 NE3       30.06F
COLUMBIA       CLOUDY    73  69  87 N3        30.07S
6HR MIN TEMP:  71; 6HR MAX TEMP:  73; 6HR PCP:  1.72;

SUMTER         HVY RAIN  72  70  94 NW7       30.07S FOG
                                      6HR PCP:  0.26;

FLORENCE       CLOUDY    71  69  93 E5        30.09S
6HR MIN TEMP:  70; 6HR MAX TEMP:  72; 6HR PCP:  0.01;

MYRTLE BEACH   CLOUDY    81  72  74 SE12G20   30.11S
N MYRTLE BEACH CLOUDY    80  72  76 SE10      30.09F
6HR MIN TEMP:  72; 6HR MAX TEMP:  80; 6HR PCP:  0.01;


$$

GAZ063-065-086>088-099>101-113>116-118-119-134>141-150-310700-
...SOUTHEAST GEORGIA...

CITY           SKY/WX    TMP DP  RH WIND       PRES   REMARKS
SAVANNAH ARPT  CLOUDY    75  73  93 N5        30.04F
6HR MIN TEMP:  75; 6HR MAX TEMP:  76; 6HR PCP:  0.57;

HUNTER AAF     RAIN      75  75 100 N3        30.01F
6HR MIN TEMP:  75; 6HR MAX TEMP:  77; 6HR PCP:  0.83;

FORT STEWART   CLOUDY    75  73  95 CALM      30.02S
6HR MIN TEMP:  74; 6HR MAX TEMP:  76; 6HR PCP:  0.01;

STATESBORO     DRIZZLE   73  50  44 N5        30.05S
SYLVANIA       CLOUDY    74  74 100 CALM      30.07R
CLAXTON        NOT AVBL

...CSRA...CENTRAL AND FAR SOUTHEAST GEORGIA...

CITY           SKY/WX    TMP DP  RH WIND       PRES   REMARKS
THOMSON        CLOUDY    70  70 100 N5        30.13S
AUGUSTA-BUSH   FAIR      68  67  96 NW3       30.06F
6HR MIN TEMP:  68; 6HR MAX TEMP:  71; 6HR PCP:  0.12;

AUGUSTA-DANIEL FAIR      72  66  81 N6        30.08F
SWAINSBORO     CLOUDY   N/A N/A N/A N3        30.06F
VIDALIA        CLOUDY    73  72  94 NE6       30.05S
EASTMAN        CLOUDY    74  74 100 E3        30.07S
HAZLEHURST     CLOUDY    76  76 100 CALM      30.03S
ALMA           CLOUDY    75  74  96 NE3       30.03S
6HR MIN TEMP:  75; 6HR MAX TEMP:  79;

WAYCROSS       CLOUDY    79  78  99 E5        30.03R
JESUP          FOG       77  77 100 CALM      30.03F VSB 3/4
BAXLEY         CLOUDY    77  75  94 E7        30.04S
BRUNSWICK      CLOUDY    75  73  94 CALM      30.03S
SAINT SIMONS   MOCLDY    79  76  90 SE6       30.01F
6HR MIN TEMP:  77; 6HR MAX TEMP:  80; 6HR PCP:  0.25;


$$

SCZ027-028-034-036>038-045-046-048>050-GAZ119-141-310700-
...LAKE AND SUPPLEMENTAL COASTAL OBSERVATIONS...

STATION/POSITION TIME  TEMP    WIND        PRES    WAVE   SWELL
                       AIR SEA DIR/SP/G            HT/PER HT/PER/DIR
                 (UTC) (F)     (DEG/KT/KT) (MB)    (FT/S) (FT/S/D)
UPR LAKE MARION  NOT AVBL
WINYAH BAY       NOT AVBL
LAKE MURRAY      0500   71      CALM  /  2 1018.6S
ACE BASIN NERRS  NOT AVBL
FORT PULASKI     NOT AVBL
SAPELO ISLAND    0500   79     120/  2     1017.0S

$$

ANZ835-935-AMZ111-154-330-350-352-354-370-450-454-472-310700-
...C-MAN AND BUOY OBSERVATIONS...

STATION/POSITION TIME  TEMP    WIND        PRES    WAVE   SWELL
                       AIR SEA DIR/SP/G            HT/PER HT/PER/DIR
                 (UTC) (F)     (DEG/KT/KT) (MB)    (FT/S) (FT/S/D)
BUOY 41004       0550   81 84  130/ 16/ 17 1017.5F   5/11   3/11
BUOY 41008       0550   81 84  140/ 17/ 23 1016.6F   5/11   3/ 90/11
FOLLY BEACH CMAN 0500   80     130/ 15/ 18 1018.0F
CAPERS NEARSHORE 0508   80     150/ 14/ 19 1017.9F
FRIPP NEARSHORE  0500   80     140/ 16/ 19 1017.3R


STATION/POSITION TIME  TEMP    WIND        PRES    WAVE   SWELL
                       AIR SEA DIR/SP/G            HT/PER HT/PER/DIR
                 (UTC) (F)     (DEG/KT/KT) (MB)    (FT/S) (FT/S/D)
5E ST. MARYS GA  0521      85                N/A     5/11   2/110/11
FRYING PAN BUOY  0550   81 82  150/ 12/ 16 1019.8R   4/10   3/140/10
BUOY 41025       0550   79 83  320/  2/  2 1020.3F   3/10   3/130/10
CAPE LOOKOUT NC  0500   79     130/  5/  5 1019.5F
BUOY 41002       0550   83 84  180/  8/ 12 1020.2F   4/ 9   3/130/ 9
BUOY 41010       0520   80 86  200/ 14/ 16 1018.5F
ST AUGUSTINE FL  0600   78 83  190/  6/  8 1016.7R


$$



USA.gov is the U.S. government's official web portal to all federal, state and local government web resources and services.